[[{"header":{"parameterUnit":"m.s-1","parameterCategory":1,"la1":30.2991,"la2":30.254,"lo1":-89.0895,"lo2":-89.0444,"dy":0.0017,"dx":0.0017,"nx":28,"ny":28,"refTime":"2025-11-15T09:00:00:Z","depth":0,"parameterNumber":2,"parameterNumberName":"U-component_of_WINDS"},"data":[0,0,0,0,0,0,0,0,0,0,0,0,0,0,0,0,0,0,0,0,0,0,0,0,0,0,0,0,0,0,0,0,0,0,0,0,0,0,0,0,0,0,0,0,0,0,0,0,0,0,0,0,0,0,0,0,0,0,2.27,2.2702,0,2.2837,2.2838,2.284,2.2827,2.2825,2.2823,2.2821,2.2962,2.2967,2.2973,0,0,0,0,0,0,0,0,0,0,0,0,0,2.243,2.2435,2.27,2.2702,2.2704,2.2836,2.2838,2.284,2.2828,2.2825,2.2823,2.282,2.296,2.2967,2.2974,0,0,0,0,0,0,0,0,0,0,0,0,0,2.2555,2.2436,2.27,2.2713,2.2716,2.2836,2.2838,2.2841,2.2828,2.2825,2.2822,2.2819,2.2958,2.2966,2.2975,2.309,0,0,2.3001,2.3004,0,0,0,0,0,0,0,0,2.2548,2.2565,2.271,2.2713,2.2716,2.2812,2.2794,2.2924,2.2829,2.2786,2.2821,2.2817,2.2915,2.2926,2.2959,2.3097,2.3103,2.3001,2.3007,2.301,2.3013,0,0,0,0,0,0,0,2.2539,2.2559,2.2754,2.2712,2.2716,2.2713,2.2727,2.2819,2.2866,2.2789,2.2789,2.2805,2.2916,2.2951,2.2962,2.3105,2.3001,2.3009,2.3014,2.3017,2.3345,2.3349,0,0,0,0,0,0,2.2527,2.2552,2.275,2.2758,2.2622,2.272,2.2736,2.2784,2.2865,2.2874,2.2807,2.2804,2.2938,2.2952,2.2967,2.3109,2.301,2.3018,2.3023,2.3342,2.3346,2.335,0,0,0,0,0,0,2.2521,2.2545,2.2744,2.2655,2.268,2.2728,2.2782,2.2788,2.2824,2.2879,2.2887,2.2835,2.2936,2.2955,2.306,2.3113,2.3022,2.303,2.3338,2.3343,2.3348,2.3393,0,0,0,0,0,0,2.2513,2.2543,2.2587,2.2656,2.2685,2.2835,2.2785,2.2793,2.2838,2.2835,2.2907,2.2916,2.2935,2.3047,2.3068,2.3124,2.3037,2.3333,2.334,2.3346,2.3387,2.3399,2.3409,0,0,0,0,0,2.2504,2.2595,2.259,2.2614,2.2741,2.2838,2.2855,2.2875,2.2843,2.2888,2.2923,2.2913,2.3104,2.3058,2.3082,2.314,2.333,2.3338,2.3346,2.3382,2.3396,2.3409,0,0,0,0,0,0,2.2532,2.2604,2.2599,2.2715,2.277,2.2836,2.2893,2.289,2.2956,2.295,2.2972,2.2988,2.3094,2.3127,2.3075,2.3257,2.3213,2.3226,2.3232,2.3246,2.3257,2.3248,2.3044,0,0,0,0,0,2.2551,2.2623,2.2682,2.2779,2.2807,2.2845,2.2888,2.2898,2.2957,2.2981,2.3024,2.3081,2.3154,2.3202,2.3272,2.3391,2.3407,2.3443,2.3454,2.3463,2.3475,2.3541,2.3558,2.3377,2.3376,2.3376,0,0,2.2592,2.264,2.2685,2.2785,2.283,2.2904,2.2865,2.2946,2.3001,2.2993,2.3095,2.3128,2.3194,2.3306,2.3358,2.3338,2.3528,2.3473,2.348,2.3487,2.3551,2.3568,2.3583,2.3382,2.3381,2.338,0,0,2.2705,2.2749,2.2834,2.2879,2.2946,2.2971,2.2992,2.3058,2.308,2.3182,2.3177,2.3244,2.3369,2.3416,2.3456,2.3586,2.358,2.3608,2.3668,2.3732,2.3746,2.3759,2.3807,2.3823,2.3619,2.3619,2.362,0,2.2748,2.286,2.2878,2.296,2.3005,2.2999,2.3086,2.3129,2.3216,2.3247,2.3222,2.3379,2.3423,2.3546,2.3578,2.361,2.3635,2.3601,2.3743,2.3756,2.3768,2.3814,2.3831,2.3623,2.3622,2.3622,2.3622,0,2.291,2.2988,2.3049,2.3132,2.3183,2.3267,2.3298,2.3348,2.3353,2.3381,2.3485,2.3537,2.3618,2.3648,2.3654,2.3773,2.3758,2.3738,2.3694,2.3788,2.3831,2.3849,2.3627,2.3626,2.3625,2.3624,0,0,2.3047,2.3138,2.3161,2.3199,2.3272,2.3333,2.3416,2.3494,2.3537,2.3596,2.3667,2.3772,2.3754,2.38,2.3811,2.3867,2.3968,2.3841,2.3842,2.3863,2.4103,2.4118,2.4138,2.3964,2.3967,2.397,2.4098,0,2.3168,2.3316,2.3334,2.3465,2.3537,2.3533,2.3606,2.3659,2.3686,2.3752,2.3782,2.3857,2.3827,2.3854,2.3909,2.3944,2.4017,2.3935,2.4031,2.4034,2.4016,2.4161,2.4178,2.4296,2.4114,2.4117,2.4119,0,2.3331,2.3395,2.3533,2.3596,2.3627,2.3692,2.3765,2.3827,2.3887,2.3903,2.3954,2.3958,2.4045,2.3996,2.4115,2.4059,2.4099,2.4122,2.4127,2.4138,2.4083,2.4177,2.4334,2.4352,2.4146,2.4144,2.4142,0,2.3418,2.3538,2.3636,2.3669,2.3745,2.3791,2.3825,2.3881,2.3927,2.3991,2.4021,2.4094,2.4135,2.4191,2.4215,2.4177,2.4333,2.4287,2.435,2.435,2.4385,2.4382,2.4552,2.4408,2.4407,2.4407,2.4407,0,2.3553,2.3638,2.3677,2.3737,2.3832,2.3852,2.3946,2.3978,2.4028,2.4095,2.4095,2.4158,2.4185,2.4252,2.4271,2.4368,2.4386,2.4402,2.4406,2.4403,2.4401,2.443,2.4423,2.4412,2.4411,2.441,2.4409,0,2.3667,2.3696,2.3803,2.3866,2.3884,2.3951,2.4005,2.4064,2.409,2.4175,2.4196,2.4238,2.4317,2.4345,2.4442,2.4454,2.4566,2.4563,2.4546,2.4548,2.461,2.4604,2.4806,2.4833,2.467,2.4671,2.4672,0,2.3752,2.3817,2.3887,2.3932,2.3967,2.4039,2.4085,2.4107,2.4156,2.4228,2.4279,2.4357,2.4421,2.4547,2.4586,2.466,2.4659,2.4725,2.4671,2.4665,2.4662,2.4658,2.4665,2.4736,2.4737,2.4739,2.474,0,2.39,2.3911,2.3978,2.4051,2.4106,2.4164,2.4221,2.4257,2.4287,2.4342,2.4422,2.4472,2.457,2.4648,2.4723,2.4758,2.4755,2.4756,2.4775,2.4773,2.4761,2.4769,2.4575,2.4752,2.4751,2.475,2.4749,2.4749,2.4004,2.4062,2.412,2.4194,2.4239,2.4291,2.4349,2.4383,2.445,2.4531,2.4539,2.4626,2.4684,2.4785,2.4823,2.4891,2.4874,2.49,2.4908,2.4914,2.4919,2.4749,2.4905,2.4904,2.4904,2.4904,2.4904,0,2.4153,2.419,2.4258,2.4337,2.4396,2.4385,2.4447,2.4497,2.4573,2.4627,2.469,2.4782,2.4858,2.4902,2.4978,2.5024,2.5024,2.5043,2.5041,2.5049,2.493,2.4907,2.5042,2.5042,2.5042,2.5042,2.5042,2.5042,2.4238,2.4336,2.4353,2.4473,2.4509,2.4594,2.463,2.4678,2.4721,2.4825,2.4887,2.4915,2.4965,2.5044,2.5113,2.5124,2.5153,2.5174,2.5183,2.5072,2.5058,2.5044,2.5023,2.5179,2.518,2.5297,2.5298,2.5299]},{"header":{"parameterUnit":"m.s-1","parameterCategory":1,"la1":30.2991,"la2":30.254,"lo1":-89.0895,"lo2":-89.0444,"dy":0.0017,"dx":0.0017,"nx":28,"ny":28,"refTime":"2025-11-15T09:00:00:Z","depth":0,"parameterNumber":3,"parameterNumberName":"V-component_of_WINDS"},"data":[0,0,0,0,0,0,0,0,0,0,0,0,0,0,0,0,0,0,0,0,0,0,0,0,0,0,0,0,0,0,0,0,0,0,0,0,0,0,0,0,0,0,0,0,0,0,0,0,0,0,0,0,0,0,0,0,0,0,0.1953,0.1953,0,0.1926,0.1925,0.1925,0.1884,0.1883,0.1882,0.1881,0.1854,0.1854,0.1854,0,0,0,0,0,0,0,0,0,0,0,0,0,0.1969,0.1969,0.1953,0.1953,0.1952,0.1926,0.1925,0.1925,0.1884,0.1883,0.1882,0.1881,0.1854,0.1854,0.1854,0,0,0,0,0,0,0,0,0,0,0,0,0,0.1954,0.1969,0.1953,0.1928,0.1926,0.1926,0.1925,0.1925,0.1884,0.1883,0.1882,0.1881,0.1854,0.1854,0.1854,0.1876,0,0,0.1854,0.1854,0,0,0,0,0,0,0,0,0.1955,0.1954,0.1932,0.193,0.1927,0.1907,0.1921,0.1908,0.1884,0.19,0.1881,0.188,0.1873,0.1871,0.1868,0.1875,0.1873,0.1854,0.1854,0.1854,0.1854,0,0,0,0,0,0,0,0.1956,0.1955,0.1942,0.1932,0.1929,0.1919,0.1915,0.1918,0.1893,0.1898,0.1895,0.1893,0.1871,0.1868,0.1867,0.1873,0.1854,0.1854,0.1854,0.1854,0.1895,0.1896,0,0,0,0,0,0,0.1961,0.1956,0.1943,0.1941,0.1939,0.1919,0.1916,0.1915,0.1893,0.1888,0.1894,0.1891,0.1869,0.1867,0.1866,0.189,0.1854,0.1854,0.1854,0.1894,0.1895,0.1897,0,0,0,0,0,0,0.1961,0.196,0.1944,0.1948,0.1945,0.192,0.1919,0.1915,0.1912,0.1889,0.1884,0.1896,0.1868,0.1866,0.1874,0.1889,0.1854,0.1854,0.1893,0.1894,0.1896,0.1938,0,0,0,0,0,0,0.1962,0.196,0.1969,0.1948,0.1945,0.1952,0.192,0.1915,0.1912,0.1908,0.189,0.1886,0.1867,0.1874,0.1874,0.1888,0.1854,0.1891,0.1893,0.1895,0.1935,0.1941,0.1946,0,0,0,0,0,0.1963,0.1982,0.1969,0.1968,0.1954,0.1953,0.1951,0.1929,0.1913,0.1921,0.1906,0.1886,0.1887,0.1875,0.1874,0.1889,0.189,0.1893,0.1895,0.1933,0.194,0.1946,0,0,0,0,0,0,0.2005,0.1979,0.1964,0.1977,0.1968,0.1946,0.1955,0.1937,0.1932,0.1929,0.1902,0.1898,0.1909,0.1899,0.1887,0.1908,0.1885,0.1888,0.1914,0.1921,0.1926,0.1928,0.1854,0,0,0,0,0,0.2016,0.2017,0.1994,0.2007,0.2003,0.198,0.1979,0.1963,0.1952,0.1947,0.1933,0.1923,0.1921,0.192,0.1917,0.1933,0.1929,0.1943,0.1948,0.1953,0.1956,0.1963,0.1969,0.1905,0.1905,0.1905,0,0,0.2038,0.2024,0.2026,0.2016,0.2006,0.2008,0.1977,0.198,0.1981,0.1948,0.1954,0.1943,0.193,0.1942,0.1946,0.1934,0.1972,0.1956,0.196,0.196,0.1966,0.1972,0.1978,0.1907,0.1906,0.1906,0,0,0.208,0.2069,0.2079,0.207,0.2056,0.2041,0.2043,0.2024,0.2015,0.2021,0.1996,0.1996,0.1993,0.1985,0.1981,0.2018,0.2,0.2018,0.2046,0.2054,0.2059,0.2063,0.2077,0.2082,0.2021,0.2021,0.2021,0,0.211,0.2111,0.2087,0.2091,0.2087,0.2057,0.2067,0.2059,0.2045,0.2043,0.203,0.2025,0.2014,0.2023,0.2033,0.203,0.2032,0.202,0.206,0.2064,0.2068,0.2081,0.2086,0.2023,0.2023,0.2023,0.2022,0,0.2148,0.215,0.216,0.2146,0.2143,0.2151,0.2127,0.2127,0.2111,0.2097,0.2103,0.2088,0.2082,0.2083,0.2067,0.209,0.2083,0.2065,0.2042,0.2077,0.2088,0.2093,0.2027,0.2026,0.2025,0.2024,0,0,0.2217,0.2189,0.2193,0.2187,0.2169,0.2169,0.2175,0.2168,0.2168,0.2159,0.2164,0.2161,0.2145,0.214,0.2123,0.213,0.216,0.2111,0.211,0.2121,0.2184,0.2197,0.2203,0.2147,0.2148,0.2149,0.2185,0,0.2255,0.2263,0.2241,0.2255,0.2256,0.2227,0.2231,0.2221,0.2208,0.2206,0.2191,0.219,0.2169,0.2165,0.2171,0.2156,0.2173,0.2152,0.2151,0.2151,0.2156,0.2209,0.2223,0.2258,0.2189,0.219,0.219,0,0.2301,0.2294,0.2308,0.2289,0.2288,0.2293,0.2284,0.2284,0.2271,0.2261,0.2255,0.2235,0.2239,0.2216,0.2221,0.2208,0.2206,0.2198,0.2199,0.2198,0.2173,0.221,0.2269,0.2274,0.2197,0.2197,0.2196,0,0.235,0.2344,0.2351,0.2346,0.2324,0.2328,0.2319,0.2305,0.2302,0.2294,0.2292,0.2286,0.2282,0.2277,0.2256,0.2241,0.2263,0.2239,0.2255,0.2256,0.2261,0.2261,0.2321,0.226,0.226,0.226,0.226,0,0.2395,0.2404,0.2372,0.2377,0.2387,0.2361,0.2372,0.2359,0.2347,0.2349,0.2323,0.2325,0.2297,0.2296,0.2279,0.2286,0.2284,0.2276,0.2272,0.2279,0.228,0.2277,0.2274,0.2261,0.2261,0.2261,0.226,0,0.2451,0.243,0.2436,0.2414,0.2409,0.2417,0.2398,0.2401,0.2386,0.2388,0.2387,0.2364,0.2361,0.2339,0.2332,0.232,0.2333,0.2324,0.2338,0.2335,0.2352,0.2351,0.2412,0.2419,0.2354,0.2354,0.2355,0,0.2481,0.2488,0.2466,0.2466,0.2458,0.2457,0.2453,0.2428,0.2426,0.2411,0.2416,0.2411,0.2406,0.2403,0.2385,0.2379,0.237,0.2391,0.2369,0.2375,0.237,0.237,0.237,0.2397,0.2397,0.2398,0.2399,0,0.2537,0.2526,0.2523,0.2515,0.2512,0.2505,0.2496,0.2497,0.2469,0.2468,0.2465,0.2461,0.2452,0.2448,0.2439,0.2429,0.2409,0.2406,0.2409,0.2417,0.2424,0.242,0.2351,0.2405,0.2404,0.2404,0.2403,0.2403,0.2581,0.2586,0.2571,0.2568,0.2559,0.2551,0.2553,0.2538,0.2534,0.2526,0.2511,0.251,0.2496,0.2482,0.2474,0.2472,0.2461,0.2466,0.2467,0.2469,0.2472,0.2424,0.247,0.247,0.247,0.247,0.247,0,0.2636,0.2625,0.2622,0.2611,0.2608,0.2589,0.2579,0.2577,0.2577,0.2566,0.2561,0.2557,0.2552,0.2533,0.2527,0.2529,0.252,0.2528,0.2528,0.2526,0.2483,0.2481,0.2536,0.2536,0.2536,0.2536,0.2536,0.2536,0.2664,0.267,0.2658,0.2659,0.2648,0.2647,0.2642,0.2635,0.2626,0.2623,0.2618,0.2606,0.2592,0.2584,0.2578,0.2573,0.2572,0.2583,0.2575,0.2535,0.2529,0.2523,0.2521,0.2583,0.2583,0.2617,0.2618,0.2618]}]]